Location: Hermaringen
(48.5952°N, 10.2585°E)
Time: 11:15:52
(UTC+00:00)

Courier 1B - Pass Details

Date: 18 February 2026
Orbit: 962 x 1208 km, 28.3° (Epoch: 7 March)

Event Time Altitude Azimuth Distance (km) Brightness Sun altitude
Rises 18:55:19 0° 214° (SW) 3,908 11.0 -22.1°
Reaches altitude 10° 19:00:13 10° 186° (S) 3,013 10.0 -22.9°
Maximum altitude 19:02:49 12° 165° (SSE) 2,888 9.7 -23.4°
Enters shadow 19:03:16 12° 161° (SSE) 2,898 9.7 -23.4°
Drops below altitude 10° 19:05:27 10° 144° (SE) 3,071 - -23.8°
Sets 19:10:33 0° 117° (ESE) 4,077 - -24.6°
